DW5264 Weather Reports


time (UTC)temp
F
wind
direction
speed
knots
gust
knots
rain 1hr
in
rain 24hr
in
rain mn
in
humidity
%
barometer
mb
20260506143017 55 0.0 0.0 0.00 0.00 0.00 79 1015.5
20260506141514 55 0.0 0.0 0.00 0.00 0.00 78 1016.1
20260506140012 55 0.0 0.0 0.00 0.00 0.00 78 1015.6
20260506134520 55 0.0 0.0 0.00 0.00 0.00 78 1015.2
20260506133108 55 0.0 0.0 0.00 0.00 0.00 78 1014.8
20260506131506 56 0.0 0.0 0.00 0.00 0.00 77 1014.6
20260506130004 56 0.0 0.0 0.00 0.00 0.00 77 1014.3
20260506124611 56 0.0 0.0 0.00 0.00 0.00 76 1014.3
20260506123058 57 0.0 0.0 0.00 0.00 0.00 75 1014.0
20260506121606 57 0.0 0.0 0.00 0.00 0.00 75 1013.9
20260506120054 57 0.0 0.0 0.00 0.00 0.00 75 1013.6
20260506114554 57 0.0 0.0 0.00 0.00 0.00 74 1013.5
20260506113049 58 0.0 0.0 0.00 0.00 0.00 73 1013.1
20260506111604 58 0.0 0.0 0.00 0.00 0.00 73 1012.8
20260506110045 58 0.0 0.0 0.00 0.00 0.00 73 1012.5
20260506104543 58 0.0 0.0 0.00 0.00 0.00 73 1012.4
20260506103041 58 0.0 0.0 0.00 0.00 0.00 73 1012.0
20260506101539 58 0.0 0.0 0.00 0.00 0.00 73 1012.0
20260506100038 58 0.0 0.0 0.00 0.00 0.00 73 1011.7
20260506094536 59 0.0 0.0 0.00 0.00 0.00 73 1011.7
20260506093035 59 0.0 0.0 0.00 0.00 0.00 73 1011.6
20260506091533 59 0.0 0.0 0.00 0.00 0.00 73 1011.5
20260506090031 59 0.0 0.0 0.00 0.00 0.00 73 1011.4
20260506084530 60 0.0 0.0 0.00 0.00 0.00 74 1011.2
20260506083028 60 0.0 0.0 0.00 0.00 0.00 73 1011.0
20260506081531 60 0.0 0.0 0.00 0.00 0.00 73 1011.0
20260506073022 61 0.0 0.0 0.00 0.00 0.00 74 1010.6
20260506071522 61 0.0 0.0 0.00 0.00 0.00 74 1010.5
20260506061523 62 0.0 0.0 0.00 0.00 0.00 74 1010.6
20260506044502 65 0.0 0.0 0.00 0.00 0.00 74 1010.3
20260506043004 66 0.0 0.0 0.00 0.00 0.00 74 1010.5
20260506041614 66 0.0 0.0 0.00 0.00 0.00 73 1010.3
20260506040056 67 0.0 0.0 0.00 0.00 0.00 72 1009.9
20260506034558 68 0.0 0.0 0.00 0.00 0.00 72 1009.3
20260506033049 70 0.0 0.0 0.00 0.00 0.00 72 1009.3
20260506031545 70 0.0 0.0 0.00 0.00 0.00 72 1009.1
20260506030044 71 0.0 0.0 0.00 0.00 0.00 71 1008.9
20260506024550 72 0.0 0.0 0.00 0.00 0.00 71 1008.7
20260506023039 72 0.0 0.0 0.00 0.00 0.00 70 1008.0
20260506021538 73 0.0 0.0 0.00 0.00 0.00 69 1007.8
20260506020039 73 0.0 0.0 0.00 0.00 0.00 68 1007.3
20260506014534 74 0.0 0.0 0.00 0.00 0.00 68 1007.1
20260506013034 74 0.0 0.0 0.00 0.00 0.00 67 1007.1
20260506011559 75 0.0 0.0 0.00 0.00 0.00 65 1006.8
20260506010031 76 0.0 0.0 0.00 0.00 0.00 65 1006.7
20260506004535 77 0.0 0.0 0.00 0.00 0.00 63 1006.5
20260506003031 79 0.0 0.0 0.00 0.00 0.00 62 1006.3
20260506001529 80 0.0 0.0 0.00 0.00 0.00 61 1006.0
20260506000046 83 0.0 0.0 0.00 0.00 0.00 59 1005.5
20260505234539 85 0.0 0.0 0.00 0.00 0.00 57 1005.1
20260505233029 88 0.0 0.0 0.00 0.00 0.00 52 1005.0
20260505231528 89 0.0 0.0 0.00 0.00 0.00 50 1004.7
20260505230048 90 0.0 0.0 0.00 0.00 0.00 47 1004.5
20260505224537 92 0.0 0.0 0.00 0.00 0.00 46 1004.1
20260505223027 94 0.0 0.0 0.00 0.00 0.00 46 1003.8
20260505221526 94 0.0 0.0 0.00 0.00 0.00 46 1003.5
20260505220024 94 0.0 0.0 0.00 0.00 0.00 48 1003.7
20260505214523 94 0.0 0.0 0.00 0.00 0.00 48 1003.8
20260505213021 93 0.0 0.0 0.00 0.00 0.00 51 1003.9
20260505211524 93 0.0 0.0 0.00 0.00 0.00 51 1004.1
20260505210014 92 0.0 0.0 0.00 0.00 0.00 52 1004.3
20260505204512 92 0.0 0.0 0.00 0.00 0.00 54 1004.5
20260505203014 92 0.0 0.0 0.00 0.00 0.00 55 1004.8
20260505201508 91 0.0 0.0 0.00 0.00 0.00 56 1004.9
20260505200006 91 0.0 0.0 0.00 0.00 0.00 56 1005.1
20260505194503 90 0.0 0.0 0.00 0.00 0.00 57 1005.0
20260505193002 89 0.0 0.0 0.00 0.00 0.00 60 1005.4
20260505191608 88 0.0 0.0 0.00 0.00 0.00 59 1005.2
20260505190056 87 0.0 0.0 0.00 0.00 0.00 63 1005.2
20260505184553 86 0.0 0.0 0.00 0.00 0.00 62 1005.4
20260505183053 86 0.0 0.0 0.00 0.00 0.00 64 1005.6
20260505181548 85 0.0 0.0 0.00 0.00 0.00 63 1005.6
20260505180054 85 0.0 0.0 0.00 0.00 0.00 64 1005.7
20260505174546 85 0.0 0.0 0.00 0.00 0.00 64 1005.7
20260505173048 85 0.0 0.0 0.00 0.00 0.00 65 1005.9
20260505171547 84 0.0 0.0 0.00 0.00 0.00 66 1005.8
20260505170040 84 0.0 0.0 0.00 0.00 0.00 67 1005.7
20260505164538 83 0.0 0.0 0.00 0.00 0.00 69 1006.0
20260505163036 82 0.0 0.0 0.00 0.00 0.00 69 1005.8
20260505161533 81 0.0 0.0 0.00 0.00 0.00 71 1005.8
20260505153025 79 0.0 0.0 0.00 0.00 0.00 74 1005.8
20260505151521 77 0.0 0.0 0.00 0.00 0.00 77 1005.7